User: anonymous
Location: Unspecified
(0.0000°N, 0.0000°E)
Time: 16:56:28
(UTC+00:00)
Language:

N. Korean satellite - Orbit

View from above orbital plane
View from above orbital plane
View from above satellite
View from above satellite

Ground track
Ground track

The orbit data is extracted from the following two-line orbital elements,

1 39026U 12072A   14204.38993015  .00001201  00000-0  66684-4 0  1069
2 39026 097.3250 242.6858 0050679 303.2870 056.3513 15.14576361 88854
Epoch (UTC): 23 July 2014 09:21:29
Eccentricity: 0.0050679
inclination: 97.3250°
perigee height: 487 km
apogee height: 557 km
right ascension of ascending node: 242.6858°
argument of perigee: 303.2870°
revolutions per day: 15.14576361
mean anomaly at epoch: 56.3513°
orbit number at epoch: 8885

The dashed part of the orbit path shows where the satellite is in the earth's shadow,  

DLR